Weather reports worldwide

Advertisment
Shap, United Kingdom (3225): temperature & dewpoint: 11.10.2018 05:00:00 - 17.10.2018 05:00:00 (BST)Shap, United Kingdom (3225): temperature -20cm & temperature -100cm: 11.10.2018 05:00:00 - 17.10.2018 05:00:00 (BST)Shap, United Kingdom (3225): wind speed & gusts: 11.10.2018 05:00:00 - 17.10.2018 05:00:00 (BST)Shap, United Kingdom (3225): wind direction: 11.10.2018 05:00:00 - 17.10.2018 05:00:00 (BST)Shap, United Kingdom (3225): reduced air pressure: 11.10.2018 05:00:00 - 17.10.2018 05:00:00 (BST)Shap, United Kingdom (3225): visibility: 11.10.2018 05:00:00 - 17.10.2018 05:00:00 (BST)Shap, United Kingdom (3225): sunshine duration: 11.10.2018 05:00:00 - 17.10.2018 05:00:00 (BST)Shap, United Kingdom (3225): precipitation: 11.10.2018 05:00:00 - 17.10.2018 05:00:00 (BST)
Date & Time tt [°C] td [°C] tt -20cm [°C] tt -100cm [°C] ff [km/h] ff [kn] fx [km/h] fx [kn] dd ppp [hPa] vv [km] sd [min] rr [mm]
17.10.2018 05:00:00 8,7 7,6 - - 8 4 - - WSW 1014,2 23 0 0,0
17.10.2018 04:00:00 9,6 8,4 - - 11 6 - - SW 1013,7 22 0 0,0
17.10.2018 03:00:00 8,8 7,8 - - 11 6 - - SSW 1013,7 24 0 0,0
17.10.2018 02:00:00 9,7 7,9 - - 8 4 - - SSW 1013,4 25 0 0,0
17.10.2018 01:00:00 10,9 9,1 - - 8 4 - - WSW 1013,0 29 - 0,2
17.10.2018 00:00:00 11,5 10,8 - - 22 12 - - SSW 1012,4 8 0 0,6
16.10.2018 23:00:00 11,2 10,5 - - 18 10 - - S 1012,2 2,9 0 0,6
16.10.2018 22:00:00 11,1 10,5 - - 22 12 - - S 1012,3 2,4 0 1,0
16.10.2018 21:00:00 10,9 10,2 - - 21 11 - - S 1012,2 2,7 0 0,8
16.10.2018 20:00:00 11,1 10,3 - - 21 11 - - SSW 1012,2 3,6 0 0,8
16.10.2018 19:00:00 11,0 10,2 - - 21 11 - - SSW 1012,2 2,1 0 0,4
16.10.2018 18:00:00 11,3 10,1 - - 28 15 46 25 SSW 1011,7 3,8 0 0,2
16.10.2018 17:00:00 11,9 9,8 - - 28 15 48 26 SSW 1011,5 4,2 0 0,0
16.10.2018 16:00:00 12,7 10,1 - - 31 17 55 30 SSW 1011,3 50 18 0,0
16.10.2018 15:00:00 13,7 11,0 - - 29 16 59 32 SSW 1011,2 50 30 0,0
16.10.2018 14:00:00 12,8 10,8 - - 29 16 54 29 SSW 1011,4 35 0 0,0
16.10.2018 13:00:00 12,7 11,8 - - 24 13 48 26 SSW 1011,6 22 0 0,0
16.10.2018 12:00:00 11,3 10,8 - - 22 12 - - SSW 1012,0 7 0 0,2
16.10.2018 11:00:00 10,9 10,4 - - 21 11 - - S 1012,1 2,9 0 0,2
16.10.2018 10:00:00 10,2 9,9 11,2 11,7 18 10 - - S 1012,6 2,8 0 0,4
16.10.2018 09:00:00 9,8 9,3 - - 16 9 - - S 1012,6 7 0 0,4
16.10.2018 08:00:00 9,5 9,2 - - 16 9 - - S 1012,9 3,3 0 0,2
16.10.2018 07:00:00 9,5 9,0 - - 16 9 - - SSW 1012,6 11 0 0,2
16.10.2018 06:00:00 9,5 9,0 - - 21 11 - - S 1012,5 5 0 0,4
16.10.2018 05:00:00 9,0 8,8 - - 15 8 - - SSW 1013,7 8 0 0,0
16.10.2018 04:00:00 7,3 7,1 - - 2 1 - - E 1014,1 4,9 0 0,2
16.10.2018 03:00:00 7,2 7,0 - - 2 1 - - SE 1014,4 3,5 0 0,0
16.10.2018 02:00:00 6,5 6,2 - - 2 1 - - WSW 1015,3 6 0 0,2
16.10.2018 01:00:00 5,9 5,4 - - 2 1 - - NNW 1016,0 13 - 0,0
16.10.2018 00:00:00 6,3 6,1 - - 11 6 - - S 1016,1 45 0 0,0
15.10.2018 23:00:00 3,2 2,8 - - 4 2 - - S 1017,0 35 0 0,0
15.10.2018 22:00:00 2,0 1,4 - - 4 2 - - SSW 1017,3 30 0 0,0
15.10.2018 21:00:00 3,3 2,6 - - 5 3 - - SSW 1017,2 40 0 0,0
15.10.2018 20:00:00 3,0 2,2 - - 2 1 - - S 1017,0 30 0 0,0
15.10.2018 19:00:00 3,5 2,3 - - 8 4 - - S 1016,6 35 0 0,0
15.10.2018 18:00:00 8,2 4,9 - - 11 6 - - E 1016,1 50 48 0,0
15.10.2018 17:00:00 10,4 5,6 - - 15 8 - - ESE 1015,4 50 54 0,0
15.10.2018 16:00:00 11,0 5,0 - - 8 4 - - ENE 1015,3 50 60 0,0
15.10.2018 15:00:00 11,5 5,3 - - 5 3 - - NE 1015,4 50 60 0,0
15.10.2018 14:00:00 10,6 4,9 - - 5 3 - - ENE 1015,8 50 30 0,0
15.10.2018 13:00:00 9,4 4,6 - - 9 5 - - ENE 1015,8 50 6 0,0
15.10.2018 12:00:00 9,6 4,6 - - 9 5 - - E 1016,0 50 48 0,0
15.10.2018 11:00:00 9,1 8,3 - - 4 2 - - NE 1015,7 50 48 0,0
15.10.2018 10:00:00 3,7 3,7 11,7 11,7 0 0 - - N 1016,3 45 18 0,0
15.10.2018 09:00:00 1,1 1,0 - - 2 1 - - ESE 1016,1 35 0 0,0
15.10.2018 08:00:00 -1,3 -1,4 - - 0 0 - - N 1015,9 24 0 0,0
15.10.2018 07:00:00 -0,7 -0,9 - - 0 0 - - N 1015,5 1,2 0 0,0
15.10.2018 06:00:00 0,0 -0,1 - - 0 0 - - N 1015,3 18 0 0,0
15.10.2018 05:00:00 -0,6 -0,8 - - 2 1 - - WNW 1015,1 17 0 0,0
15.10.2018 04:00:00 -0,3 -0,4 - - 0 0 - - N 1015,0 17 0 0,0
15.10.2018 03:00:00 -0,5 -0,7 - - 2 1 - - WSW 1014,7 9 0 0,0
15.10.2018 02:00:00 -0,1 -0,4 - - 2 1 - - WSW 1014,5 17 0 0,0
15.10.2018 01:00:00 0,0 -0,3 - - 2 1 - - ENE 1014,4 22 - 0,0
15.10.2018 00:00:00 1,4 1,0 - - 4 2 - - SSW 1014,0 30 0 0,0
14.10.2018 23:00:00 1,8 1,4 - - 2 1 - - WSW 1013,7 35 0 0,0
14.10.2018 22:00:00 1,6 1,0 - - 2 1 - - SSE 1013,5 35 0 0,0
14.10.2018 21:00:00 3,0 2,2 - - 2 1 - - S 1012,8 40 0 0,0
14.10.2018 20:00:00 4,2 3,4 - - 11 6 - - W 1012,2 35 0 0,0
14.10.2018 19:00:00 4,9 3,6 - - 4 2 - - WSW 1011,8 40 0 0,0
14.10.2018 18:00:00 6,7 4,6 - - 4 2 - - WSW 1010,7 40 42 0,0
14.10.2018 17:00:00 9,9 6,3 - - 8 4 - - NNE 1009,5 45 42 0,0
14.10.2018 16:00:00 9,5 6,4 - - 8 4 - - N 1009,2 50 30 0,0
14.10.2018 15:00:00 10,4 6,9 - - 11 6 - - NNE 1008,9 50 18 0,0
14.10.2018 14:00:00 9,2 6,2 - - 8 4 - - NE 1009,1 45 0 0,0
14.10.2018 13:00:00 9,0 6,3 - - 9 5 - - W 1009,3 45 0 0,0
14.10.2018 12:00:00 8,2 6,7 - - 5 3 - - ENE 1008,9 50 0 0,0
14.10.2018 11:00:00 8,1 6,0 - - 5 3 - - W 1008,7 50 0 0,0
14.10.2018 10:00:00 7,6 6,2 12,5 11,7 2 1 - - NNE 1008,9 50 0 0,0
14.10.2018 09:00:00 7,3 5,9 - - 2 1 - - N 1008,7 50 0 0,0
14.10.2018 08:00:00 7,6 5,4 - - 5 3 - - N 1007,6 50 0 0,0
14.10.2018 07:00:00 8,1 5,3 - - 9 5 - - NW 1006,2 50 0 0,0
14.10.2018 06:00:00 7,8 5,9 - - 2 1 - - NW 1006,2 50 0 0,0
14.10.2018 05:00:00 9,0 6,9 - - 16 9 - - NW 1006,1 50 0 0,0
14.10.2018 04:00:00 9,6 7,4 - - 9 5 - - NW 1004,3 50 0 0,0
14.10.2018 03:00:00 10,5 8,8 - - 9 5 - - WNW 1003,1 50 0 0,0
14.10.2018 02:00:00 11,8 10,5 - - 34 18 52 28 SW 1001,9 50 0 1,0
14.10.2018 01:00:00 12,5 10,8 - - 37 20 57 31 SSW 1001,2 11 - 0,2
14.10.2018 00:00:00 13,4 11,3 - - 39 21 67 36 SSW 1000,9 30 0 0,0
13.10.2018 23:00:00 13,6 12,2 - - 44 24 76 41 SSW 1000,3 19 0 0,2
13.10.2018 22:00:00 14,0 12,7 - - 41 22 68 37 SW 999,7 50 0 0,6
13.10.2018 21:00:00 15,1 14,0 - - 41 22 76 41 SSW 999,0 11 0 4,0
13.10.2018 20:00:00 16,8 14,8 - - 50 27 70 38 S 997,2 45 0 0,8
13.10.2018 19:00:00 16,4 15,3 - - 35 19 67 36 S 997,1 0,8 0 7,6
13.10.2018 18:00:00 16,7 15,2 - - 39 21 68 37 S 996,5 2,0 0 0,6
13.10.2018 17:00:00 17,1 14,9 - - 46 25 80 43 S 996,2 50 0 0,2
13.10.2018 16:00:00 16,6 15,7 - - 39 21 67 36 S 996,5 6 0 4,4
13.10.2018 15:00:00 15,8 14,2 - - 50 27 70 38 SW 998,0 1,9 0 11,4
13.10.2018 14:00:00 17,2 16,1 - - 44 24 83 45 SSW 997,4 0,7 0 7,2
13.10.2018 13:00:00 17,4 16,3 - - 50 27 81 44 S 997,7 3,0 0 0,6
13.10.2018 12:00:00 17,5 16,3 - - 55 30 85 46 S 997,7 7 0 2,8
13.10.2018 11:00:00 16,2 15,8 - - 29 16 - - SSW 998,3 4,8 0 7,0
13.10.2018 10:00:00 13,1 12,8 12,0 11,5 13 7 - - ESE 999,5 7 0 3,2
13.10.2018 09:00:00 12,7 12,2 - - 8 4 - - SE 1001,4 3,6 0 3,0
13.10.2018 08:00:00 13,2 12,5 - - 18 10 - - S 1002,3 4,2 0 3,0
13.10.2018 07:00:00 13,3 12,7 - - 22 12 - - S 1002,5 4,1 0 1,8
13.10.2018 06:00:00 13,5 12,8 - - 29 16 - - S 1002,8 5 0 1,8
13.10.2018 05:00:00 13,6 13,0 - - 16 9 - - S 1002,6 6 0 2,8
13.10.2018 04:00:00 13,3 12,8 - - 15 8 - - S 1003,4 5 0 2,8
13.10.2018 03:00:00 13,1 12,3 - - 21 11 - - SSW 1003,4 7 0 2,4
13.10.2018 02:00:00 13,0 12,0 - - 22 12 - - SSW 1003,4 4,8 0 1,4
13.10.2018 01:00:00 12,9 11,6 - - 29 16 50 27 SW 1003,0 50 - 0,2
13.10.2018 00:00:00 12,8 11,5 - - 28 15 - - SW 1002,3 50 0 1,0
12.10.2018 23:00:00 12,6 11,4 - - 26 14 50 27 SW 1001,6 2,7 0 1,8
12.10.2018 22:00:00 13,3 12,2 - - 29 16 55 30 SW 1000,6 4,6 0 4,0
12.10.2018 21:00:00 14,1 13,1 - - 34 18 57 31 SW 999,1 2,3 0 5,4
12.10.2018 20:00:00 14,9 13,9 - - 35 19 70 38 SW 997,8 0,7 0 6,8
12.10.2018 19:00:00 16,3 15,6 - - 50 27 80 43 SSW 995,9 1,3 0 5,8
12.10.2018 18:00:00 16,1 15,5 - - 55 30 98 53 SSW 995,2 1,9 0 4,8
12.10.2018 17:00:00 15,7 14,7 - - 54 29 83 45 S 993,9 0,9 0 5,4
12.10.2018 16:00:00 15,5 14,3 - - 55 30 80 43 S 993,9 4,8 0 3,0
12.10.2018 15:00:00 15,3 13,5 - - 52 28 87 47 S 993,8 4,5 0 0,0
12.10.2018 14:00:00 14,8 13,3 - - 41 22 70 38 S 995,4 50 0 2,4
12.10.2018 13:00:00 14,1 13,0 - - 37 20 57 31 S 996,8 3,4 0 1,4
12.10.2018 12:00:00 14,4 12,7 - - 41 22 68 37 S 998,1 35 0 0,0
12.10.2018 11:00:00 14,0 12,3 - - 48 26 76 41 S 998,1 50 0 0,0
12.10.2018 10:00:00 14,0 11,8 11,4 11,5 54 29 83 45 S 997,2 50 0 0,0
12.10.2018 09:00:00 13,2 11,3 - - 57 31 81 44 S 997,3 23 0 0,0
12.10.2018 08:00:00 12,4 10,3 - - 48 26 76 41 S 996,9 40 0 0,0
12.10.2018 07:00:00 10,8 9,6 - - 46 25 72 39 S 996,9 26 0 4,4
12.10.2018 06:00:00 10,7 9,3 - - 39 21 59 32 S 998,0 3,7 0 1,8
12.10.2018 05:00:00 10,7 9,1 - - 39 21 59 32 S 998,7 35 0 0,0
12.10.2018 04:00:00 10,4 8,5 - - 24 13 - - S 999,5 18 0 0,0
12.10.2018 03:00:00 8,2 6,9 - - 15 8 - - SSE 1001,0 45 0 0,0
12.10.2018 02:00:00 9,2 7,9 - - 18 10 - - S 1002,5 35 0 0,0
12.10.2018 01:00:00 9,6 8,5 - - 18 10 - - S 1002,8 12 - 0,0
12.10.2018 00:00:00 9,8 8,7 - - 11 6 - - SSW 1002,5 9 0 0,0
11.10.2018 23:00:00 10,3 9,1 - - 9 5 - - SW 1002,5 50 0 0,0
11.10.2018 22:00:00 10,3 9,4 - - 9 5 - - SW 1002,1 45 0 0,0
11.10.2018 21:00:00 10,4 10,0 - - 11 6 - - S 1001,7 6 0 0,2
11.10.2018 20:00:00 10,4 9,8 - - 9 5 - - SSE 1001,2 7 0 0,8
11.10.2018 19:00:00 10,7 9,3 - - 5 3 - - NE 1000,4 40 0 0,6
11.10.2018 18:00:00 11,4 9,5 - - 26 14 52 28 SW 999,2 2,7 0 1,8
11.10.2018 17:00:00 13,6 12,0 - - 16 9 - - S 998,1 29 0 0,6
11.10.2018 16:00:00 13,7 11,7 - - 26 14 - - S 998,5 10 0 0,8
11.10.2018 15:00:00 14,2 11,5 - - 22 12 48 26 S 998,2 35 0 0,2
11.10.2018 14:00:00 14,4 11,8 - - 28 15 46 25 S 998,8 22 0 0,2
11.10.2018 13:00:00 15,3 11,2 - - 34 18 54 29 S 998,7 30 0 0,0
11.10.2018 12:00:00 15,5 13,0 - - 26 14 46 25 S 998,4 20 6 0,0
11.10.2018 11:00:00 14,5 12,4 - - 21 11 - - S 998,7 17 0 0,4
11.10.2018 10:00:00 13,9 12,3 11,2 11,5 13 7 - - S 999,3 4,5 0 0,4
11.10.2018 09:00:00 14,2 11,9 - - 15 8 - - S 999,5 12 0 0,0
11.10.2018 08:00:00 13,9 12,2 - - 21 11 - - SSE 999,5 7 0 0,0
11.10.2018 07:00:00 13,6 11,9 - - 22 12 - - SSE 999,5 8 0 0,0
11.10.2018 06:00:00 13,3 12,2 - - 13 7 - - S 1000,0 6 0 0,0
11.10.2018 05:00:00 12,4 10,9 - - 11 6 - - SSW 1000,9 4,6 0 0,0

tt = temperature
td = dewpoint
tt -20cm = temperature -20cm
tt -100cm = temperature -100cm
ff = wind speed
fx = gusts
dd = wind direction
ppp = reduced air pressure
vv = visibility
sd = sunshine duration
rr = precipitation

Next stations